Temp
98 90 86 92 94 93 92 88 88 92 97 92 91 87 90 94 95 92 94 93 94 95 98 98 100 100 97 94 92 90 91 88 88 87 81 75 79 80 80 82 84 81 82 82
92 85 94 98 97 93 93 90 88 92 96 93 91 89 92 94 95 94 95 94 95 97 97 96 97 99 99 96 91 90 89 88 87 89 87 82 80 84 83 82 81 83 83 82
87 92 99 94 93 90 91 89 86 87 92 95 92 87 87 94 96 98 98 98 99 97 96 96 96 96 98 96 94 91 89 88 88 88 85 82 81 80 82 82 81 82 84 83
91 97 96 93 91 94 85 94 93 90 87 78 93 75 86 90 91 95 98 98 99 99 98 96 93 94 96 97 98 92 90 89 90 89 87 81 80 78 83 85 82 81 83 84
88 92 92 90 92 96 89 95 93 92 87 86 85 81 74 74 61 71 95 99 100 96 98 94 95 96 98 97 97 96 91 89 91 88 87 84 82 80 83 83 82 80 81 84
93 102 98 95 98 98 98 93 92 91 87 75 85 83 74 62 63 75 91 98 100 98 94 89 96 97 98 99 99 96 89 88 89 89 88 86 84 82 79 79 77 82 81 79
89 92 98 100 92 95 94 88 75 72 70 73 85 81 76 77 76 72 87 96 99 78 68 69 94 97 97 98 98 93 88 86 88 89 88 88 85 83 80 80 77 79 82 83
79 77 92 98 94 89 89 89 76 64 68 71 82 69 76 88 86 92 97 97 99 92 82 91 98 98 95 95 93 90 88 86 88 89 88 87 86 84 81 83 84 85 84 80
81 81 97 98 98 95 87 83 94 81 84 75 78 77 84 83 93 94 94 94 95 95 96 96 97 96 93 93 91 89 87 86 88 87 87 87 86 84 84 84 84 84 85 86
90 80 92 95 98 97 92 95 81 85 69 68 71 71 65 60 69 84 90 92 93 94 93 94 91 91 94 94 93 91 89 87 89 91 90 89 90 89 87 84 84 84 84 84
93 89 85 93 89 87 89 86 87 88 84 71 58 64 77 67 72 73 87 92 92 92 90 91 92 92 93 94 93 93 91 90 90 89 90 90 89 89 89 87 87 85 84 84
94 91 81 86 96 98 94 90 90 79 76 76 75 73 78 80 73 61 69 92 94 92 92 92 91 90 89 87 89 89 88 86 88 85 85 85 84 83 84 84 86 86 86 87
93 86 78 80 90 94 89 91 92 91 85 73 70 64 69 76 85 83 91 90 77 84 83 77 82 80 82 80 81 81 82 81 84 84 84 83 83 81 80 80 80 81 79 80
91 90 82 71 80 87 84 89 88 87 68 64 69 56 57 67 87 90 89 88 80 80 77 77 73 78 78 78 79 78 77 80 82 80 79 79 78 78 79 78 78 78 78 78
93 79 77 66 83 87 80 78 79 81 85 73 63 57 59 69 85 89 90 85 82 80 80 78 78 78 79 78 79 78 79 78 80 77 77 76 74 74 74 73 73 74 75 76
94 80 82 70 83 86 79 79 81 85 87 86 75 64 75 87 89 87 86 85 81 80 80 79 78 80 82 83 81 80 78 79 78 75 73 72 71 71 71 71 71 71 72 73
88 86 82 75 84 82 76 83 84 88 89 86 78 79 85 82 83 82 82 83 81 80 81 82 83 84 83 84 81 78 78 77 74 72 70 70 70 69 69 69 69 68 68 69
87 84 84 78 82 68 84 94 92 88 89 90 88 86 86 84 84 85 85 82 81 81 81 81 82 82 84 83 80 77 78 74 71 69 69 69 68 67 67 67 66 66 66 66
95 87 80 75 75 76 83 88 87 85 83 90 87 87 86 86 84 82 85 85 82 82 82 82 83 82 79 78 78 75 72 72 70 68 67 66 64 63 63 64 64 66 65 65
94 93 84 79 66 57 68 79 94 91 75 90 89 87 85 85 74 75 83 84 83 83 82 81 82 82 78 75 75 73 71 68 65 64 64 63 64 64 64 64 63 64 64 63
81 80 77 79 75 70 78 82 88 71 73 90 91 89 87 81 81 82 84 82 82 81 80 81 80 77 75 75 74 71 69 64 63 64 64 64 63 62 63 63 63 62 62 61
80 75 76 75 65 59 78 81 75 83 90 92 91 90 82 82 82 82 81 80 79 77 78 79 76 75 76 74 72 70 65 66 64 63 63 63 63 65 65 62 62 61 60 58
78 76 74 74 67 72 77 80 93 94 90 90 89 90 86 84 82 81 79 77 75 76 75 77 75 73 73 72 71 69 66 65 64 64 66 66 65 65 63 62 61 61 60 58
84 87 71 73 70 74 79 89 92 93 91 91 91 89 87 83 82 80 79 77 75 75 73 74 73 71 69 70 71 71 67 67 66 64 66 67 66 64 66 65 63 61 59 57
78 86 79 78 79 82 86 89 90 90 91 89 89 88 86 84 81 79 75 73 73 73 73 72 70 69 69 69 69 70 69 68 66 67 68 67 66 66 66 65 63 62 61 55
69 78 82 78 83 84 82 88 90 87 86 86 84 82 84 82 78 77 74 74 73 71 72 70 70 69 69 69 69 68 69 68 67 67 67 66 66 64 63 61 61 58 54 51
MSLP
998.73 998.32 997.24 996.18 995.91 996.69 996.41 996.59 996.02 996.30 997.00 997.73 997.76 998.95 999.79 1000.17 1000.52 1001.20 1001.63 1002.57 1003.05 1003.57 1004.08 1005.12 1005.65 1006.08 1007.02 1007.95 1008.84 1009.54 1010.02 1010.43 1011.11 1011.75 1012.30 1012.70 1012.82 1013.04 1013.12 1013.17 1013.14 1013.42 1013.70 1013.91
998.42 997.67 996.77 996.65 996.28 996.30 995.93 995.71 995.78 996.43 996.87 997.39 997.54 997.82 998.66 999.47 999.80 1000.36 1000.76 1001.41 1001.91 1002.50 1003.48 1004.59 1005.37 1005.64 1006.33 1007.13 1008.07 1008.84 1009.47 1010.12 1010.71 1011.15 1011.52 1011.98 1012.29 1012.56 1012.62 1012.63 1012.76 1012.72 1012.96 1013.31
997.72 997.00 996.46 996.61 996.30 996.22 995.75 995.47 996.34 996.21 996.80 996.93 996.97 997.43 998.39 998.89 999.42 999.70 999.93 1000.35 1000.47 1001.00 1002.25 1003.76 1004.81 1005.65 1006.23 1006.69 1007.38 1008.22 1008.89 1009.62 1010.23 1010.74 1010.98 1011.63 1012.06 1012.29 1012.38 1012.36 1012.38 1012.33 1012.31 1012.66
997.32 996.50 995.97 996.24 995.97 995.72 995.39 995.84 995.84 996.13 996.36 996.44 996.85 997.22 998.47 999.14 1000.09 1000.15 999.79 999.20 999.05 1000.84 1001.49 1003.40 1005.23 1005.72 1006.09 1006.30 1006.98 1007.65 1008.39 1009.22 1009.95 1010.45 1010.91 1011.22 1011.56 1011.75 1011.73 1011.67 1011.49 1011.57 1011.56 1012.03
996.74 996.14 995.53 995.42 995.70 995.40 995.49 996.17 995.99 996.08 996.31 996.07 996.80 997.66 1001.34 1001.38 1004.30 1002.95 1000.21 998.92 998.95 997.63 1001.04 1002.60 1004.81 1005.72 1005.77 1006.36 1006.84 1007.29 1008.12 1009.00 1009.69 1010.17 1010.61 1010.94 1011.31 1011.49 1011.43 1011.27 1011.20 1011.42 1011.26 1011.37
996.39 995.73 995.28 995.46 995.42 995.53 995.82 996.18 996.28 996.35 996.54 996.40 996.27 997.59 1000.99 1003.36 1003.40 1003.29 1001.24 999.75 999.38 999.57 999.78 1001.74 1004.71 1005.48 1005.91 1005.91 1006.14 1007.09 1008.29 1009.11 1009.72 1010.12 1010.35 1010.68 1010.97 1011.12 1011.32 1011.40 1011.25 1011.01 1010.83 1011.31
996.41 995.43 995.13 995.31 995.27 995.81 996.10 996.11 995.95 996.20 996.72 996.49 997.47 998.39 1000.65 1002.10 1003.21 1003.80 1001.76 1000.37 1000.41 1002.04 1001.23 1003.65 1004.54 1004.99 1005.43 1005.67 1006.15 1007.33 1008.61 1009.51 1009.79 1010.04 1010.24 1010.41 1010.65 1010.87 1011.08 1011.18 1010.92 1010.60 1010.42 1010.48
995.83 995.35 994.62 994.81 995.06 995.35 995.60 995.70 995.44 995.93 996.61 997.61 998.77 1000.06 1001.46 1001.61 1002.20 1001.36 1000.59 1000.40 1000.65 1001.65 1001.72 1003.84 1004.16 1004.73 1005.48 1006.08 1006.75 1007.50 1008.55 1009.24 1009.73 1010.09 1010.42 1010.64 1010.73 1010.73 1010.83 1010.72 1010.64 1010.30 1010.21 1010.20
994.92 994.90 994.61 994.44 995.15 995.65 995.71 995.31 995.15 995.70 995.98 997.35 998.50 1001.27 1002.21 1003.65 1001.21 1001.19 1001.10 1000.90 1001.23 1001.70 1002.59 1003.62 1004.31 1005.05 1005.99 1006.83 1007.51 1008.28 1008.98 1009.49 1009.72 1010.12 1010.44 1010.55 1010.70 1010.76 1010.78 1010.70 1010.67 1010.37 1010.16 1010.13
994.49 994.26 994.23 994.53 995.17 995.32 995.24 995.34 995.29 994.81 995.52 996.69 998.98 1001.11 1004.19 1005.18 1005.31 1002.59 1002.28 1001.54 1001.77 1002.40 1003.27 1004.12 1005.12 1005.92 1006.48 1007.15 1008.01 1008.68 1009.33 1009.67 1009.73 1009.74 1009.85 1009.96 1010.11 1010.24 1010.46 1010.42 1010.29 1010.14 1010.04 1010.01
994.61 994.04 994.31 994.51 994.33 994.34 994.66 995.24 995.42 995.33 995.84 997.40 1000.40 1004.19 1005.19 1005.83 1005.70 1004.57 1002.73 1002.09 1002.91 1003.57 1004.25 1004.98 1005.50 1006.40 1007.02 1007.72 1008.37 1008.86 1009.34 1009.64 1009.68 1009.75 1009.94 1009.95 1009.99 1009.87 1009.89 1009.90 1009.74 1009.70 1009.66 1009.63
994.38 993.79 993.49 993.51 993.82 994.21 994.60 994.64 994.90 995.45 996.40 998.94 1001.21 1003.46 1004.81 1003.90 1004.32 1005.78 1003.87 1002.72 1003.56 1003.57 1004.36 1004.70 1005.19 1006.17 1008.04 1008.85 1009.35 1009.85 1010.30 1010.59 1010.69 1010.76 1010.60 1010.45 1010.45 1010.36 1010.35 1010.07 1009.80 1009.58 1009.22 1009.19
994.40 994.16 993.67 993.70 993.90 994.24 994.73 994.78 995.12 995.48 997.56 1000.13 1002.56 1006.15 1005.40 1004.59 1003.33 1003.81 1002.55 1003.71 1005.14 1005.98 1006.25 1006.73 1006.88 1007.50 1009.47 1010.54 1010.85 1011.04 1011.26 1011.87 1011.76 1011.70 1011.49 1011.30 1011.11 1011.03 1011.04 1010.88 1010.75 1010.41 1010.07 1009.84
994.52 994.14 994.67 995.75 994.51 994.94 994.56 994.77 995.45 996.97 998.67 1001.33 1003.55 1007.20 1007.86 1005.54 1003.43 1002.99 1003.57 1004.79 1006.37 1007.21 1008.42 1008.89 1009.38 1010.21 1011.07 1011.56 1011.76 1011.79 1011.59 1011.43 1011.97 1012.04 1012.45 1012.20 1011.98 1011.97 1011.85 1011.78 1011.38 1010.98 1010.61 1010.23
994.84 995.55 996.27 996.80 995.96 996.09 995.98 996.18 996.17 996.78 997.55 1000.46 1003.98 1006.49 1007.04 1005.63 1003.77 1003.50 1004.25 1005.60 1007.03 1007.88 1008.91 1009.99 1010.55 1011.28 1011.58 1011.94 1012.11 1012.41 1012.15 1011.89 1012.28 1012.77 1012.95 1012.81 1012.91 1012.81 1012.64 1012.60 1012.30 1011.76 1011.20 1010.69
994.77 995.52 996.37 997.64 997.08 996.70 996.89 997.07 997.36 997.45 997.49 999.15 1002.18 1005.35 1005.64 1004.91 1004.35 1004.23 1004.76 1006.02 1007.32 1008.40 1009.52 1010.41 1011.15 1011.37 1011.37 1011.62 1011.98 1012.41 1012.42 1012.59 1012.89 1013.43 1013.64 1013.63 1013.52 1013.47 1013.28 1012.99 1012.57 1012.14 1011.67 1011.15
994.50 994.79 995.29 995.84 996.39 996.72 996.77 996.97 996.97 996.76 997.50 998.71 1000.17 1002.70 1003.80 1004.37 1004.78 1005.40 1006.02 1006.75 1007.77 1008.89 1009.66 1010.14 1010.48 1010.88 1011.45 1011.53 1012.14 1012.71 1013.00 1013.32 1013.71 1013.96 1014.13 1014.19 1014.13 1013.95 1013.67 1013.32 1012.90 1012.44 1011.99 1011.44
994.14 994.51 994.93 995.22 995.91 996.21 996.08 996.33 996.57 996.62 997.49 998.70 999.90 1001.57 1002.82 1004.22 1005.27 1006.00 1006.65 1007.42 1008.45 1009.33 1010.09 1010.69 1011.03 1011.43 1011.58 1012.15 1012.87 1013.38 1013.55 1013.94 1014.33 1014.59 1014.72 1014.69 1014.53 1014.23 1013.91 1013.58 1013.16 1012.88 1012.54 1012.19
993.75 994.19 994.61 995.16 996.21 997.59 997.71 997.88 997.29 997.19 998.11 999.19 1000.10 1001.60 1002.95 1004.26 1005.42 1006.39 1007.17 1008.13 1009.08 1009.93 1010.51 1011.03 1011.39 1011.78 1012.53 1013.17 1013.60 1013.99 1014.35 1014.66 1014.99 1015.22 1015.26 1015.21 1015.08 1014.65 1014.22 1013.74 1013.30 1012.96 1012.63 1012.26
993.26 993.82 994.68 995.73 997.79 999.44 1001.30 1000.07 998.65 998.66 998.79 999.61 1000.56 1001.85 1003.21 1004.41 1005.33 1006.68 1008.10 1008.89 1009.62 1010.39 1011.08 1011.58 1011.76 1012.18 1012.99 1013.81 1014.21 1014.55 1014.80 1015.25 1015.69 1015.88 1015.83 1015.59 1015.18 1014.74 1014.35 1014.02 1013.62 1013.26 1012.91 1012.45
993.16 993.92 995.15 996.09 997.79 1000.39 1002.01 1001.97 1000.34 999.75 1000.39 1000.27 1000.99 1002.07 1003.34 1004.58 1005.63 1007.28 1008.56 1009.53 1010.40 1011.06 1011.72 1012.03 1012.28 1012.96 1013.76 1014.35 1014.67 1014.82 1015.21 1015.94 1016.34 1016.09 1015.75 1015.42 1015.26 1014.86 1014.38 1014.05 1013.71 1013.39 1013.12 1012.81
993.98 995.64 996.22 997.92 999.85 1002.33 1002.40 1002.39 1001.14 1000.76 1000.66 1000.77 1001.61 1002.53 1004.21 1005.64 1006.78 1007.91 1009.14 1010.12 1011.08 1011.85 1012.19 1012.48 1012.95 1013.67 1014.17 1014.73 1014.96 1015.01 1015.67 1016.20 1016.27 1016.06 1015.74 1015.41 1015.04 1014.63 1014.37 1014.18 1013.81 1013.52 1013.26 1012.88
995.21 996.01 996.86 998.38 1000.85 1002.14 1002.80 1001.90 1000.49 1000.64 1001.25 1001.70 1002.38 1003.24 1004.55 1005.84 1007.18 1008.48 1009.72 1010.87 1012.00 1012.45 1012.94 1013.33 1013.61 1014.11 1014.65 1015.07 1015.19 1015.08 1015.66 1016.10 1016.03 1015.73 1015.14 1014.84 1014.70 1014.61 1014.33 1014.08 1013.73 1013.45 1013.18 1013.05
996.55 996.53 999.36 999.72 1002.17 1001.85 1001.08 1001.19 1001.04 1001.15 1001.94 1002.52 1003.36 1004.24 1005.20 1006.25 1007.64 1008.96 1010.20 1011.27 1012.20 1012.97 1013.53 1013.93 1014.16 1014.56 1015.00 1015.27 1015.26 1015.18 1015.63 1015.88 1015.71 1015.44 1014.85 1014.61 1014.43 1014.21 1014.04 1014.01 1013.93 1013.76 1013.61 1013.48
997.90 997.18 998.19 999.45 1001.21 1001.47 1001.40 1001.56 1001.67 1002.03 1002.95 1003.81 1004.59 1005.27 1005.94 1007.05 1008.30 1009.52 1011.00 1012.09 1012.89 1013.53 1014.05 1014.51 1014.80 1015.04 1015.33 1015.50 1015.46 1015.53 1015.57 1015.52 1015.40 1015.03 1014.65 1014.64 1014.59 1014.37 1014.00 1013.96 1014.04 1014.01 1013.90 1013.95
999.37 997.97 997.68 998.81 1000.13 1000.07 1001.24 1001.84 1002.44 1003.18 1004.04 1004.85 1005.61 1006.39 1007.20 1008.17 1009.39 1010.41 1011.70 1012.66 1013.43 1014.05 1014.51 1014.88 1015.08 1015.37 1015.58 1015.66 1015.65 1015.78 1015.67 1015.44 1015.14 1014.66 1014.66 1014.54 1014.43 1014.54 1014.51 1014.37 1014.17 1013.93 1013.63 1013.48
Wind_Speed
17 13 16 19 13 12 17 18 11 10 10 3 6 20 19 17 18 16 16 16 16 16 15 14 11 14 11 16 14 12 7 8 7 6 6 4 5 5 4 5 9 8 7 8
17 17 22 7 6 2 12 9 4 7 4 7 6 11 17 19 15 20 15 17 17 18 16 16 12 12 11 13 15 14 11 9 7 6 6 5 4 6 6 7 7 6 9 8
20 21 21 3 9 8 10 9 2 7 8 10 8 11 21 21 16 12 20 19 19 20 19 17 12 9 6 7 10 12 11 11 9 8 4 4 4 2 4 4 5 7 8 9
19 25 18 13 14 13 10 12 7 2 10 11 10 11 8 14 6 8 12 21 20 18 20 16 10 12 10 6 6 7 10 9 9 8 7 6 4 4 5 6 6 6 9 9
19 20 21 13 13 10 3 6 12 6 10 16 15 5 5 23 24 28 12 16 14 10 22 19 12 12 13 10 9 7 9 7 3 8 6 4 7 6 7 7 5 3 4 6
21 19 15 15 14 6 8 6 11 11 12 13 5 1 12 7 18 14 16 8 11 16 17 16 13 12 9 11 9 12 10 6 5 3 5 5 6 6 5 5 4 4 5 5
18 22 17 11 16 4 11 13 11 9 7 10 8 5 6 20 27 32 22 8 7 29 31 19 17 15 9 5 7 15 11 6 4 3 3 3 4 4 6 5 6 7 4 5
14 18 22 16 16 12 14 17 10 7 8 8 15 10 6 12 25 25 11 7 2 22 28 23 12 9 9 10 11 13 9 8 6 3 2 3 4 4 4 4 5 5 5 3
16 18 22 14 11 16 12 17 17 14 20 13 9 8 12 14 9 12 12 12 9 13 13 12 11 13 13 9 12 10 9 7 5 6 2 2 2 4 4 5 5 5 5 6
20 12 19 17 18 21 18 10 12 8 7 8 9 11 7 18 16 5 11 13 14 15 15 13 15 10 10 12 10 10 9 6 3 3 3 1 2 3 2 4 5 4 5 5
24 18 15 20 20 20 11 9 14 17 6 1 2 1 8 21 9 7 8 13 15 12 13 12 12 11 10 10 9 9 7 4 3 7 3 2 2 5 3 5 4 5 6 6
24 14 13 26 19 17 16 19 18 9 9 7 6 1 10 14 21 29 35 14 14 10 16 16 15 15 12 10 9 8 11 10 10 11 10 11 9 10 11 10 9 7 5 3
20 18 11 9 16 13 18 14 17 6 9 7 3 6 20 29 20 25 16 19 12 17 18 13 18 17 12 11 10 10 11 10 11 9 11 11 10 11 12 13 12 12 10 10
18 20 12 8 13 9 26 15 16 12 6 8 7 7 10 28 6 9 17 15 16 13 16 12 13 12 10 8 7 8 6 5 7 9 9 9 9 10 10 11 12 13 13 12
16 5 6 14 17 10 8 7 13 24 7 12 19 14 15 22 9 10 12 19 18 13 13 12 8 7 3 5 3 2 6 8 7 7 8 10 12 12 12 12 12 13 13 12
18 10 16 22 28 6 17 12 16 25 5 8 24 20 23 7 10 10 14 12 14 12 12 9 6 7 4 1 4 6 7 7 8 9 9 10 10 10 10 11 12 11 12 12
19 14 10 12 18 16 10 19 29 6 6 7 10 16 13 11 11 11 10 11 13 9 9 6 5 6 4 6 9 9 8 9 8 8 8 8 9 10 10 10 10 11 13 14
19 17 9 8 15 11 9 9 5 9 9 7 8 11 12 13 12 11 11 12 11 9 7 4 5 5 7 10 11 8 8 7 7 7 8 8 9 10 11 12 11 11 11 11
21 17 9 5 4 5 7 6 6 5 12 8 13 11 14 12 14 11 11 12 10 8 6 4 5 5 8 8 7 7 8 7 8 9 9 10 9 9 10 10 9 10 10 10
23 17 12 4 6 4 4 10 15 7 11 9 13 10 11 12 7 11 11 10 9 8 8 5 4 8 8 8 8 6 6 9 10 11 9 8 8 9 10 10 10 9 10 11
17 5 11 11 6 7 15 9 10 7 8 7 8 9 10 6 10 15 12 10 8 7 9 3 6 8 9 8 6 6 8 10 9 8 8 9 9 8 9 9 8 9 9 11
14 15 16 4 7 8 5 10 3 5 7 8 7 9 18 16 15 13 11 9 9 7 5 8 8 7 8 8 6 6 9 8 9 9 9 9 9 7 8 9 9 8 7 9
8 4 2 6 6 8 3 8 5 7 8 6 9 13 15 15 13 12 10 9 8 5 8 7 6 7 7 7 6 7 8 7 9 9 7 6 7 8 8 9 9 9 9 7
7 10 8 11 7 14 15 4 5 10 9 11 10 12 12 13 12 10 8 8 8 8 7 6 6 7 7 6 6 6 7 7 8 8 9 8 8 7 7 8 8 8 8 9
3 13 14 13 21 15 11 11 12 13 12 13 12 10 11 12 10 11 10 9 8 6 6 6 6 6 7 6 7 9 8 5 7 7 6 7 8 10 9 8 6 7 7 5
6 8 6 8 17 8 13 13 14 14 14 13 13 12 10 12 10 12 10 8 7 6 6 5 5 6 7 7 7 7 7 7 8 7 7 6 6 6 7 7 7 7 4 5
Wind_Direction
224 237 238 244 294 180 229 209 193 130 128 252 225 158 170 186 180 170 177 168 182 186 176 161 186 173 152 159 163 172 187 165 159 176 179 184 225 201 214 235 226 216 216 224
232 224 249 321 265 261 268 239 76 104 165 221 205 203 174 179 195 176 185 172 191 180 164 155 190 184 170 165 164 169 177 163 186 195 197 192 177 225 216 209 227 219 212 226
226 225 241 203 239 249 237 264 242 160 188 256 239 225 163 176 177 199 178 184 186 178 165 163 181 165 194 192 157 163 172 172 185 209 217 166 177 240 247 222 224 223 220 209
221 245 231 204 256 210 243 328 296 228 217 215 235 282 159 140 178 204 207 193 192 173 158 145 163 178 208 165 157 157 157 165 183 195 232 178 231 237 239 239 209 206 203 210
229 232 249 202 216 261 67 250 271 229 279 277 198 242 138 78 49 297 232 217 226 156 162 137 164 169 186 158 177 145 135 138 202 183 225 253 220 231 236 244 268 220 213 225
244 231 237 215 239 204 273 244 240 247 249 259 321 259 112 139 162 279 282 218 247 193 124 105 140 163 173 191 151 126 109 117 142 209 209 226 276 284 291 308 309 259 228 222
237 249 219 236 226 185 246 246 232 222 308 267 230 238 137 161 157 203 243 218 236 102 116 219 190 174 176 125 129 114 118 134 149 180 229 249 268 276 302 300 256 263 208 204
213 226 223 187 226 212 217 235 251 279 227 323 289 61 197 201 197 187 166 161 120 143 155 189 166 171 112 103 87 93 107 131 128 104 26 9 331 301 237 251 353 326 329 285
209 228 222 187 215 247 248 261 268 269 235 230 176 112 141 337 156 146 147 131 126 88 102 116 132 117 101 110 97 103 96 91 106 122 130 262 251 249 294 320 319 288 322 338
253 210 232 184 199 223 237 276 277 276 271 285 75 95 111 37 324 326 148 136 128 109 96 90 89 110 124 105 106 97 88 81 78 322 179 209 227 204 241 247 245 253 264 276
247 254 181 228 206 223 210 243 256 270 278 45 64 173 162 185 193 343 238 123 110 119 111 118 101 96 106 119 129 117 100 74 65 53 29 280 287 271 231 256 261 236 249 247
235 250 228 203 202 212 240 219 235 245 249 68 12 131 248 210 163 175 255 133 141 133 142 146 124 99 78 57 57 60 40 31 15 6 2 13 7 5 357 344 340 310 272 312
229 243 224 210 197 197 225 230 248 294 50 34 53 5 333 325 157 182 111 95 78 80 78 53 65 65 64 57 43 28 50 10 4 359 357 355 354 359 348 347 345 340 343 341
237 262 173 186 231 305 211 226 321 181 93 299 73 171 139 274 51 98 108 106 102 93 88 74 43 64 51 45 35 24 27 36 8 15 348 334 4 350 342 335 334 341 342 337
237 189 72 10 307 71 62 64 333 315 83 197 123 113 245 248 152 121 114 118 103 98 97 78 110 91 120 150 160 89 26 30 15 358 335 10 12 2 356 355 345 344 337 333
225 187 146 187 240 140 122 128 264 274 18 35 132 157 199 199 118 128 112 125 110 106 97 98 133 175 149 77 59 47 23 14 15 13 14 8 360 344 339 335 332 331 329 332
220 226 214 186 185 168 202 182 208 129 68 57 71 114 126 110 106 105 109 117 104 115 123 113 83 60 30 18 60 32 16 27 16 6 16 350 350 337 326 322 326 335 336 333
211 224 236 222 207 191 74 71 154 78 74 54 102 107 108 113 114 118 121 109 112 98 94 83 50 15 13 34 29 15 11 35 28 10 356 348 337 337 346 344 341 340 332 334
206 217 229 171 226 19 50 68 146 136 112 109 106 110 109 120 111 107 99 104 102 105 102 55 49 39 57 38 28 18 35 15 15 359 352 350 349 330 319 313 329 335 332 322
212 210 229 147 128 138 346 303 30 2 92 96 111 128 135 142 201 134 125 121 106 81 76 32 38 64 64 46 38 15 25 33 5 354 343 319 318 329 336 338 335 333 331 326
218 188 244 234 197 76 168 223 284 287 105 100 121 136 148 123 84 122 113 101 94 72 74 32 65 61 67 48 24 15 44 21 355 339 339 349 338 321 329 327 330 333 336 326
206 176 229 161 109 115 326 322 313 103 138 120 114 123 104 117 122 118 106 100 79 64 59 58 68 59 52 44 17 21 44 14 1 357 355 349 341 336 349 340 330 336 336 329
186 113 67 59 129 165 250 237 126 152 115 124 130 124 132 134 127 132 121 100 84 78 64 61 51 66 49 36 19 18 52 25 352 338 335 5 358 355 1 349 352 350 348 350
86 73 110 112 168 169 169 188 128 121 123 109 113 115 138 128 122 119 108 104 98 78 67 52 42 43 42 26 12 27 58 9 334 349 338 10 353 339 25 5 8 1 9 353
22 141 117 112 161 163 140 153 121 114 118 116 115 127 118 119 111 114 107 98 96 85 73 66 45 43 35 22 21 18 0 6 338 333 9 9 3 347 8 9 10 10 16 13
41 288 134 107 153 144 144 131 132 130 125 122 111 102 95 107 110 105 110 109 99 87 77 57 54 46 34 20 24 16 355 348 336 343 20 349 3 5 0 348 348 350 345 350